Time[GMT],current_speed[cm/s](2m),current_direction[angular_degrees](2m),temperature[C](2m),current_u[cm/s](2m),current_v[cm/s](2m)
2004-05-14 19:00,19.65,259.0,9.26,-19.29,-3.76
2004-05-14 20:00,21.41,264.9,9.32,-21.33,-1.89
2004-05-14 21:00,21.70,262.8,9.39,-21.53,-2.71
2004-05-14 22:00,20.53,257.6,9.35,-20.05,-4.42
2004-05-14 23:00,20.82,250.9,9.26,-19.68,-6.82
2004-05-15 00:00,22.29,240.7,9.16,-19.44,-10.91
2004-05-15 01:00,9.39,245.6,9.01,-8.55,-3.88
2004-05-15 02:00,2.35,163.3,9.01,0.67,-2.25
2004-05-15 03:00,4.69,163.3,9.01,1.35,-4.50
2004-05-15 04:00,14.08,89.8,9.16,14.08,0.04
2004-05-15 05:00,15.25,142.9,9.07,9.19,-12.17
2004-05-15 06:00,9.09,142.6,9.07,5.52,-7.22
2004-05-15 07:00,5.87,215.4,9.13,-3.40,-4.78
2004-05-15 08:00,19.65,235.8,9.20,-16.25,-11.06
2004-05-15 09:00,22.29,251.9,9.01,-21.19,-6.91
2004-05-15 10:00,25.52,256.2,9.10,-24.78,-6.11
2004-05-15 11:00,20.53,247.0,9.32,-18.90,-8.02
2004-05-15 12:00,17.01,230.5,9.20,-13.12,-10.82
2004-05-15 13:00,12.32,211.2,9.32,-6.37,-10.54
2004-05-15 14:00,7.33,210.1,9.32,-3.68,-6.34
2004-05-15 15:00,9.68,147.5,9.92,5.20,-8.16
2004-05-15 16:00,13.49,204.8,10.24,-5.66,-12.25
2004-05-15 17:00,0.59,172.8,10.43,0.07,-0.58
2004-05-15 18:00,5.28,349.3,10.65,-0.98,5.19
2004-05-15 19:00,8.51,292.0,10.78,-7.89,3.19
2004-05-15 20:00,18.77,278.0,10.68,-18.59,2.60
2004-05-15 21:00,31.09,280.4,10.97,-30.58,5.62
2004-05-15 22:00,20.24,291.0,10.52,-18.90,7.24
2004-05-15 23:00,19.36,314.2,9.80,-13.89,13.49
2004-05-16 00:00,11.15,344.7,10.15,-2.94,10.75
2004-05-16 01:00,3.23,181.3,9.92,-0.07,-3.23
2004-05-16 02:00,12.32,159.1,9.54,4.39,-11.51
2004-05-16 03:00,21.70,159.8,10.11,7.49,-20.37
2004-05-16 04:00,25.52,161.9,10.18,7.92,-24.26
2004-05-16 05:00,24.64,160.5,10.33,8.22,-23.23
2004-05-16 06:00,24.34,172.8,10.33,3.04,-24.15
2004-05-16 07:00,21.12,189.4,10.46,-3.43,-20.84
2004-05-16 08:00,29.62,203.4,10.59,-11.77,-27.18
2004-05-16 09:00,26.10,220.6,10.68,-17.00,-19.81
2004-05-16 10:00,28.74,235.1,10.81,-23.56,-16.46
2004-05-16 11:00,25.81,255.8,10.43,-25.02,-6.33
2004-05-16 12:00,28.45,253.3,10.24,-27.26,-8.16
2004-05-16 13:00,28.45,256.5,10.18,-27.66,-6.64
2004-05-16 14:00,20.53,239.6,10.24,-17.71,-10.38
2004-05-16 15:00,19.94,231.2,10.21,-15.54,-12.50
2004-05-16 16:00,17.60,245.6,10.24,-16.03,-7.27
2004-05-16 17:00,13.49,246.7,10.27,-12.39,-5.34
2004-05-16 18:00,14.37,218.5,10.24,-8.95,-11.24
2004-05-16 19:00,10.85,217.5,10.27,-6.60,-8.61
2004-05-16 21:00,12.61,252.3,10.46,-12.01,-3.84
2004-05-16 22:00,16.72,270.9,10.62,-16.72,0.27
2004-05-16 23:00,17.30,258.6,10.68,-16.96,-3.42
2004-05-17 00:00,10.27,235.4,10.59,-8.45,-5.83
2004-05-17 01:00,14.66,208.0,10.43,-6.88,-12.95
2004-05-17 02:00,9.68,248.1,10.71,-8.98,-3.62
2004-05-17 03:00,8.80,137.7,10.68,5.93,-6.50
2004-05-17 04:00,11.15,128.5,10.68,8.72,-6.94
2004-05-17 05:00,18.48,137.3,10.52,12.53,-13.58
2004-05-17 06:00,16.72,156.7,10.46,6.63,-15.35
2004-05-17 07:00,13.79,150.7,10.37,6.75,-12.02
2004-05-17 08:00,8.21,174.6,10.37,0.78,-8.18
2004-05-17 09:00,16.42,242.4,10.40,-14.56,-7.60
2004-05-17 10:00,19.94,236.5,10.43,-16.62,-11.02
2004-05-17 11:00,22.58,259.3,10.46,-22.19,-4.19
2004-05-17 12:00,22.58,259.0,10.52,-22.17,-4.32
2004-05-17 13:00,16.13,253.0,10.59,-15.43,-4.72
2004-05-17 14:00,9.39,216.4,10.71,-5.57,-7.55
2004-05-17 15:00,3.81,139.8,10.75,2.46,-2.91
2004-05-17 16:00,12.03,110.6,10.87,11.26,-4.23
2004-05-17 17:00,15.25,107.4,10.97,14.55,-4.57
2004-05-17 18:00,15.25,97.2,11.19,15.13,-1.92
2004-05-17 19:00,16.13,116.6,11.19,14.43,-7.22
2004-05-17 20:00,17.60,122.5,11.31,14.83,-9.47
2004-05-17 21:00,13.49,186.5,11.38,-1.54,-13.40
2004-05-17 22:00,18.48,224.5,11.00,-12.95,-13.18
2004-05-18 00:00,35.78,295.9,10.90,-32.19,15.62
2004-05-18 01:00,21.12,334.2,10.90,-9.19,19.01
2004-05-18 02:00,17.30,3.0,10.87,0.91,17.28
2004-05-18 03:00,,,,,
2004-05-18 04:00,20.24,57.9,10.81,17.13,10.77
2004-05-18 05:00,27.57,87.4,10.65,27.54,1.26
2004-05-18 06:00,29.62,84.2,10.30,29.47,2.98
2004-05-18 07:00,28.74,97.2,9.99,28.51,-3.62
2004-05-18 08:00,26.10,119.7,9.77,22.67,-12.95
2004-05-18 09:00,19.06,119.0,10.18,16.67,-9.25
2004-05-18 10:00,20.24,148.9,10.18,10.45,-17.33
2004-05-18 11:00,17.89,179.9,10.43,0.04,-17.89
2004-05-18 12:00,16.13,221.7,10.37,-10.73,-12.04
2004-05-18 13:00,17.30,238.6,10.37,-14.77,-9.02
2004-05-18 14:00,,,,,
2004-05-18 15:00,217.63,5.0,,19.08,216.79
2004-05-18 16:00,6.16,153.8,10.30,2.72,-5.53
2004-05-18 17:00,4.69,65.9,10.33,4.29,1.91
2004-05-18 18:00,5.87,56.4,10.46,4.89,3.24
2004-05-18 19:00,21.41,50.5,10.52,16.51,13.63
2004-05-18 21:00,22.00,69.5,10.59,20.60,7.72
2004-05-18 22:00,11.73,82.5,10.59,11.63,1.54
2004-05-18 23:00,9.97,113.4,10.52,9.15,-3.96
2004-05-19 00:00,10.85,206.6,10.46,-4.86,-9.71
2004-05-19 01:00,15.25,179.9,10.43,0.04,-15.25
2004-05-19 02:00,17.89,178.8,10.49,0.37,-17.89
2004-05-19 03:00,22.88,164.0,10.40,6.29,-22.00
2004-05-19 04:00,20.82,139.1,10.30,13.64,-15.73
2004-05-19 05:00,18.77,142.6,10.18,11.40,-14.91
2004-05-19 06:00,20.82,125.7,10.08,16.91,-12.16
2004-05-19 07:00,22.29,113.1,9.64,20.51,-8.73
2004-05-19 08:00,28.16,112.4,10.21,26.04,-10.71
2004-05-19 09:00,29.62,120.8,9.80,25.45,-15.16
2004-05-19 10:00,27.57,132.4,10.02,20.36,-18.59
2004-05-19 11:00,27.28,170.0,9.86,4.73,-26.86
2004-05-19 12:00,22.58,221.0,9.42,-14.82,-17.05
2004-05-19 13:00,20.82,268.1,9.70,-20.81,-0.69
2004-05-19 14:00,15.54,275.8,9.89,-15.46,1.58
2004-05-19 15:00,3.52,199.2,10.05,-1.16,-3.32
2004-05-19 16:00,7.04,139.4,10.08,4.58,-5.35
2004-05-19 17:00,14.37,30.4,10.11,7.28,12.39
2004-05-19 18:00,7.63,98.6,10.37,7.54,-1.15
2004-05-19 19:00,10.27,95.8,10.37,10.21,-1.04
2004-05-19 20:00,11.15,110.6,10.33,10.43,-3.92
2004-05-19 21:00,7.33,49.1,10.87,5.54,4.80
2004-05-19 22:00,9.39,333.9,11.00,-4.14,8.43
2004-05-19 23:00,10.27,306.8,10.84,-8.22,6.15
2004-05-20 00:00,14.37,307.8,10.90,-11.35,8.82
2004-05-20 01:00,3.81,1.6,10.59,0.11,3.81
2004-05-20 02:00,5.87,51.9,10.87,4.61,3.62
2004-05-20 03:00,8.21,96.5,10.87,8.16,-0.93
2004-05-20 04:00,10.27,104.3,10.87,9.95,-2.53
2004-05-20 05:00,16.42,85.3,10.75,16.37,1.35
2004-05-20 06:00,11.73,96.2,10.24,11.66,-1.26
2004-05-20 07:00,25.22,116.2,10.62,22.63,-11.14
2004-05-20 08:00,26.10,112.4,10.84,24.14,-9.93
2004-05-20 09:00,20.53,122.5,10.62,17.31,-11.05
2004-05-20 10:00,14.96,178.5,10.43,0.40,-14.95
2004-05-20 11:00,18.18,213.3,10.18,-9.97,-15.21
2004-05-20 12:00,22.00,234.7,10.15,-17.95,-12.71
2004-05-20 13:00,22.88,245.3,10.08,-20.78,-9.58
2004-05-20 14:00,17.01,264.9,10.11,-16.95,-1.50
2004-05-20 15:00,9.97,266.7,10.27,-9.96,-0.57
2004-05-20 16:00,3.23,257.6,10.18,-3.15,-0.69
2004-05-20 17:00,6.16,85.3,10.93,6.14,0.51
2004-05-20 18:00,12.91,124.0,10.33,10.70,-7.21
2004-05-20 19:00,14.37,86.7,11.19,14.35,0.83
2004-05-20 20:00,21.12,56.8,11.19,17.67,11.56
2004-05-20 21:00,18.77,50.8,10.93,14.55,11.86
2004-05-20 22:00,15.54,32.2,10.65,8.28,13.16
2004-05-20 23:00,11.73,33.2,10.62,6.43,9.81
2004-05-21 00:00,11.44,22.0,10.56,4.28,10.61
2004-05-21 01:00,10.85,18.8,10.52,3.50,10.27
2004-05-21 02:00,7.92,30.4,10.56,4.01,6.83
2004-05-21 03:00,10.56,39.9,10.46,6.78,8.10
2004-05-21 04:00,12.91,73.0,10.37,12.34,3.78
2004-05-21 05:00,18.77,77.5,10.33,18.33,4.05
2004-05-21 06:00,24.64,89.8,10.30,24.64,0.07
2004-05-21 07:00,25.22,111.6,10.11,23.44,-9.30
2004-05-21 08:00,17.60,109.5,9.73,16.58,-5.89
2004-05-21 09:00,21.41,104.3,9.39,20.75,-5.28
2004-05-21 10:00,12.32,105.3,9.07,11.88,-3.25
2004-05-21 11:00,9.97,133.8,8.78,7.20,-6.90
2004-05-21 12:00,11.73,219.2,8.82,-7.42,-9.09
2004-05-21 13:00,10.56,241.7,9.07,-9.30,-5.00
2004-05-21 14:00,9.68,259.7,9.45,-9.52,-1.74
2004-05-21 15:00,16.72,255.8,9.70,-16.21,-4.10
2004-05-21 16:00,14.37,257.2,9.96,-14.02,-3.18
2004-05-21 17:00,8.21,231.5,10.18,-6.43,-5.11
2004-05-21 18:00,3.52,164.7,10.56,0.93,-3.40
2004-05-21 19:00,0.29,51.5,10.24,0.23,0.18
2004-05-21 20:00,1.47,114.1,10.40,1.34,-0.60
2004-05-21 22:00,10.56,48.7,11.00,7.93,6.97
2004-05-21 23:00,10.85,74.0,10.90,10.43,2.99
2004-05-22 00:00,6.75,353.5,11.09,-0.76,6.70
2004-05-22 01:00,3.81,351.8,11.09,-0.55,3.77
2004-05-22 02:00,5.28,308.2,10.97,-4.15,3.26
2004-05-22 03:00,4.11,217.5,10.78,-2.50,-3.26
2004-05-22 04:00,9.39,185.1,10.27,-0.84,-9.35
2004-05-22 05:00,13.49,135.2,10.81,9.51,-9.57
2004-05-22 06:00,14.96,144.7,10.37,8.64,-12.21
2004-05-22 07:00,12.32,123.6,10.21,10.26,-6.82
2004-05-22 08:00,9.09,150.0,10.46,4.55,-7.87
2004-05-22 09:00,9.68,142.9,9.96,5.83,-7.72
2004-05-22 10:00,2.93,152.4,9.89,1.36,-2.60
2004-05-22 12:00,15.84,285.0,9.86,-15.30,4.10
2004-05-22 13:00,19.36,280.4,9.99,-19.04,3.50
2004-05-22 14:00,23.46,281.1,10.02,-23.02,4.52
2004-05-22 15:00,20.53,285.7,9.89,-19.77,5.55
2004-05-22 16:00,12.61,230.8,9.96,-9.78,-7.96
2004-05-22 17:00,14.66,218.2,9.80,-9.07,-11.53
2004-05-22 18:00,15.84,188.3,9.73,-2.29,-15.67
2004-05-22 19:00,14.66,179.5,9.64,0.13,-14.66
2004-05-22 20:00,22.00,186.5,9.39,-2.50,-21.85
2004-05-22 21:00,21.12,186.9,9.16,-2.53,-20.97
2004-05-22 22:00,19.65,182.0,9.04,-0.67,-19.64
2004-05-22 23:00,30.50,201.3,8.88,-11.08,-28.42
2004-05-23 00:00,28.45,227.0,8.56,-20.80,-19.41
2004-05-23 01:00,34.90,235.4,8.50,-28.73,-19.81
2004-05-23 02:00,29.92,251.9,8.72,-28.44,-9.28
2004-05-23 03:00,24.93,258.6,8.94,-24.44,-4.92
2004-05-23 04:00,21.12,255.5,9.07,-20.44,-5.30
2004-05-23 05:00,12.32,235.4,9.13,-10.14,-6.99
2004-05-23 06:00,5.57,273.4,9.16,-5.56,0.33
2004-05-23 07:00,7.04,343.4,9.51,-2.02,6.74
2004-05-23 08:00,8.80,92.3,9.29,8.79,-0.35
2004-05-23 09:00,26.69,80.4,9.01,26.31,4.47
2004-05-23 10:00,30.21,94.4,9.07,30.12,-2.33
2004-05-23 11:00,39.01,119.0,8.75,34.11,-18.93
2004-05-23 12:00,22.58,135.6,8.59,15.81,-16.12
2004-05-23 13:00,23.17,182.7,9.04,-1.08,-23.15
2004-05-23 14:00,27.86,204.1,9.42,-11.39,-25.43
2004-05-23 15:00,32.56,220.6,9.89,-21.21,-24.70
2004-05-23 16:00,39.89,237.2,9.35,-33.52,-21.63
2004-05-23 17:00,41.65,223.5,9.99,-28.65,-30.23
2004-05-23 18:00,43.41,222.8,10.49,-29.47,-31.87
2004-05-23 19:00,39.60,232.2,10.59,-31.31,-24.24
2004-05-23 20:00,37.25,232.6,10.65,-29.59,-22.63
2004-05-23 21:00,26.40,239.6,10.65,-22.77,-13.35
2004-05-23 22:00,16.72,237.5,10.59,-14.10,-8.98
2004-05-23 23:00,17.30,260.0,10.56,-17.04,-3.00
2004-05-24 00:00,16.42,277.3,10.49,-16.29,2.07
2004-05-24 01:00,19.65,271.6,10.43,-19.64,0.56
2004-05-24 02:00,14.37,275.8,10.33,-14.30,1.46
2004-05-24 03:00,9.68,268.5,10.27,-9.68,-0.26
2004-05-24 04:00,11.15,288.5,10.30,-10.57,3.54
2004-05-24 05:00,7.33,229.8,10.27,-5.60,-4.73
2004-05-24 06:00,9.09,178.5,10.33,0.25,-9.09
2004-05-24 07:00,13.79,189.4,10.43,-2.24,-13.60
2004-05-24 08:00,18.18,192.5,10.52,-3.94,-17.75
2004-05-24 09:00,23.17,209.0,10.49,-11.25,-20.26
2004-05-24 10:00,34.61,206.9,10.46,-15.68,-30.86
2004-05-24 11:00,31.38,219.2,10.02,-19.85,-24.31
2004-05-24 12:00,31.68,227.7,9.70,-23.42,-21.33
2004-05-24 13:00,30.80,262.5,10.24,-30.53,-4.03
2004-05-24 14:00,36.96,272.0,10.59,-36.93,1.27
2004-05-24 15:00,43.70,279.7,10.71,-43.08,7.37
2004-05-24 16:00,31.68,291.0,10.75,-29.58,11.33
2004-05-24 17:00,26.10,296.9,10.71,-23.27,11.83
2004-05-24 18:00,13.49,306.8,10.68,-10.81,8.08
2004-05-24 19:00,3.23,186.5,10.56,-0.37,-3.21
2004-05-24 20:00,2.64,227.3,10.59,-1.94,-1.79
2004-05-24 21:00,10.85,141.2,10.65,6.80,-8.46
2004-05-24 22:00,16.13,156.3,10.81,6.48,-14.77
2004-05-24 23:00,23.17,160.5,10.93,7.73,-21.84
2004-05-25 00:00,29.33,181.6,9.86,-0.83,-29.32
2004-05-25 01:00,37.84,201.7,10.02,-13.96,-35.16
2004-05-25 02:00,46.93,202.0,10.30,-17.59,-43.51
2004-05-25 03:00,53.38,211.2,10.49,-27.61,-45.68
2004-05-25 04:00,47.22,224.5,10.37,-33.10,-33.67
2004-05-25 05:00,38.72,235.1,10.24,-31.74,-22.17
2004-05-25 06:00,41.65,232.6,10.40,-33.09,-25.30
2004-05-25 07:00,30.80,229.4,10.40,-23.39,-20.03
2004-05-25 08:00,21.70,235.4,10.40,-17.87,-12.32
2004-05-25 09:00,19.36,227.3,10.40,-14.23,-13.12
2004-05-25 10:00,18.77,217.8,10.40,-11.51,-14.83
2004-05-25 11:00,8.80,215.7,10.43,-5.14,-7.14
2004-05-25 12:00,12.03,194.3,10.43,-2.96,-11.65
2004-05-25 13:00,13.79,193.2,10.46,-3.15,-13.42
2004-05-25 14:00,23.76,199.2,10.49,-7.81,-22.44
2004-05-25 15:00,24.34,203.8,10.56,-9.81,-22.28
2004-05-25 16:00,26.40,210.1,10.52,-13.24,-22.84
2004-05-25 17:00,28.16,201.7,10.49,-10.39,-26.17
2004-05-25 18:00,39.01,208.3,10.46,-18.52,-34.33
2004-05-25 19:00,45.17,209.7,10.37,-22.41,-39.22
2004-05-25 20:00,40.77,219.2,10.40,-25.79,-31.58
2004-05-25 21:00,39.89,221.3,10.40,-26.35,-29.95
2004-05-25 22:00,36.08,227.7,10.40,-26.67,-24.29
2004-05-25 23:00,34.32,231.5,10.33,-26.87,-21.34
2004-05-26 00:00,29.92,247.0,10.30,-27.54,-11.68
2004-05-26 01:00,25.81,255.1,10.30,-24.94,-6.64
2004-05-26 02:00,18.18,282.5,10.33,-17.75,3.94
2004-05-26 03:00,13.49,276.5,10.37,-13.40,1.54
2004-05-26 04:00,14.37,259.3,10.37,-14.12,-2.66
2004-05-26 05:00,10.85,242.1,10.33,-9.59,-5.08
2004-05-26 06:00,12.03,142.9,10.30,7.25,-9.60
2004-05-26 07:00,15.84,167.2,10.27,3.51,-15.44
2004-05-26 08:00,24.05,178.8,10.02,0.50,-24.05
2004-05-26 09:00,29.04,193.9,10.21,-6.99,-28.18
2004-05-26 10:00,37.25,203.1,10.30,-14.59,-34.27
2004-05-26 11:00,41.94,198.5,10.33,-13.30,-39.78
2004-05-26 12:00,46.34,209.4,10.40,-22.74,-40.38
2004-05-26 14:00,46.93,220.6,10.27,-30.57,-35.61
2004-05-26 15:00,41.94,224.9,10.15,-29.59,-29.73
2004-05-26 16:00,51.03,231.9,9.92,-40.16,-31.49
2004-05-26 17:00,44.29,231.2,9.92,-34.51,-27.76
2004-05-26 18:00,43.70,218.2,9.83,-27.01,-34.35
2004-05-26 19:00,40.77,219.6,9.99,-25.98,-31.42
2004-05-26 21:00,38.13,227.3,10.24,-28.03,-25.85
2004-05-26 22:00,34.90,214.7,10.21,-19.85,-28.71
2004-05-26 23:00,32.85,205.2,10.24,-13.97,-29.73
2004-05-27 00:00,32.85,215.0,10.24,-18.85,-26.90
2004-05-27 01:00,3.52,297.3,10.21,-3.13,1.61
2004-05-27 02:00,24.05,240.0,10.21,-20.82,-12.03
2004-05-27 03:00,27.28,237.5,10.18,-23.01,-14.65
2004-05-27 04:00,31.38,238.9,10.18,-26.88,-16.20
2004-05-27 05:00,29.04,234.0,10.21,-23.49,-17.07
2004-05-27 06:00,25.22,220.6,10.21,-16.43,-19.14
2004-05-27 07:00,29.33,227.3,10.24,-21.56,-19.88
2004-05-27 08:00,32.26,209.7,10.18,-16.01,-28.01
2004-05-27 09:00,24.34,207.3,10.18,-11.16,-21.64
2004-05-27 10:00,22.00,190.8,10.15,-4.11,-21.61
2004-05-27 11:00,24.93,197.4,10.11,-7.47,-23.78
2004-05-27 12:00,34.90,191.5,10.15,-6.94,-34.21
2004-05-27 13:00,33.73,194.6,10.24,-8.52,-32.64
2004-05-27 14:00,28.45,206.9,10.21,-12.89,-25.36
2004-05-27 15:00,29.33,212.2,10.37,-15.63,-24.82
2004-05-27 16:00,31.68,227.3,10.43,-23.29,-21.47
2004-05-27 17:00,39.01,235.1,10.52,-31.98,-22.34
2004-05-27 18:00,44.87,244.6,10.90,-40.52,-19.28
2004-05-27 19:00,35.78,235.4,10.62,-29.46,-20.31
2004-05-27 20:00,34.02,218.5,10.33,-21.20,-26.61
2004-05-27 21:00,31.09,227.0,10.68,-22.73,-21.21
2004-05-27 22:00,22.00,243.5,10.84,-19.69,-9.82
2004-05-27 23:00,20.24,203.1,10.37,-7.93,-18.62
2004-05-28 00:00,17.30,212.9,10.78,-9.40,-14.53
2004-05-28 01:00,11.15,231.9,10.75,-8.77,-6.88
2004-05-28 02:00,7.04,206.2,10.68,-3.11,-6.31
2004-05-28 03:00,5.28,172.1,10.71,0.72,-5.23
2004-05-28 04:00,8.21,222.4,10.68,-5.54,-6.06
2004-05-28 05:00,7.04,206.6,10.62,-3.15,-6.30
2004-05-28 06:00,9.68,220.6,10.62,-6.30,-7.34
2004-05-28 07:00,12.91,184.1,10.56,-0.92,-12.87
2004-05-28 08:00,22.00,178.5,10.56,0.59,-21.99
2004-05-28 09:00,20.53,171.1,10.59,3.19,-20.28
2004-05-28 10:00,17.60,152.4,10.62,8.14,-15.60
2004-05-28 11:00,19.65,133.8,10.62,14.18,-13.60
2004-05-28 12:00,23.46,144.7,10.65,13.56,-19.15
2004-05-28 13:00,24.34,129.9,10.65,18.67,-15.63
2004-05-28 14:00,18.48,95.5,10.71,18.39,-1.76
2004-05-28 15:00,17.60,125.7,10.71,14.29,-10.27
2004-05-28 16:00,9.09,111.6,10.84,8.45,-3.35
2004-05-28 17:00,9.68,138.7,10.90,6.39,-7.27
2004-05-28 18:00,5.87,127.8,10.93,4.63,-3.60
2004-05-28 19:00,14.08,172.5,10.97,1.84,-13.96
2004-05-28 20:00,20.24,181.6,11.03,-0.57,-20.23
2004-05-28 21:00,23.46,171.1,11.03,3.64,-23.18
2004-05-28 22:00,19.36,174.9,11.12,1.71,-19.28
2004-05-28 23:00,22.88,154.9,11.16,9.71,-20.72
2004-05-29 00:00,24.05,150.0,11.16,12.04,-20.82
2004-05-29 01:00,24.64,148.2,11.12,12.98,-20.94
2004-05-29 02:00,24.64,144.0,11.06,14.48,-19.93
2004-05-29 03:00,23.17,148.6,10.97,12.08,-19.77
2004-05-29 04:00,19.94,154.2,10.90,8.68,-17.95
2004-05-29 05:00,21.70,166.8,10.90,4.94,-21.13
2004-05-29 06:00,24.05,191.5,10.87,-4.78,-23.57
2004-05-29 07:00,28.74,178.5,10.84,0.78,-28.73
2004-05-29 08:00,29.33,176.3,10.68,1.87,-29.27
2004-05-29 09:00,27.57,185.1,10.62,-2.47,-27.46
2004-05-29 10:00,29.04,167.2,10.59,6.43,-28.32
2004-05-29 11:00,27.86,166.1,10.62,6.67,-27.05
2004-05-29 12:00,33.14,161.6,10.59,10.48,-31.44
2004-05-29 13:00,33.73,156.7,10.52,13.37,-30.97
2004-05-29 14:00,33.14,169.7,10.65,5.95,-32.60
2004-05-29 15:00,29.92,174.9,10.40,2.64,-29.80
2004-05-29 16:00,33.73,201.3,10.21,-12.26,-31.42
2004-05-29 17:00,30.50,218.2,10.21,-18.86,-23.98
2004-05-29 18:00,32.85,227.7,10.33,-24.29,-22.12
2004-05-29 19:00,35.78,231.5,10.37,-28.02,-22.25
2004-05-29 20:00,30.80,219.6,10.18,-19.63,-23.73
2004-05-29 21:00,32.56,220.3,9.99,-21.05,-24.83
2004-05-29 22:00,34.61,214.3,9.99,-19.51,-28.59
2004-05-29 23:00,41.65,198.8,9.96,-13.45,-39.42
2004-05-30 00:00,45.46,204.5,10.27,-18.83,-41.38
2004-05-30 01:00,53.38,201.3,10.46,-19.40,-49.73
2004-05-30 02:00,61.89,206.9,10.65,-28.03,-55.17
2004-05-30 03:00,55.43,209.7,10.71,-27.50,-48.13
2004-05-30 04:00,53.67,218.2,10.68,-33.18,-42.19
2004-05-30 05:00,43.70,222.0,10.71,-29.27,-32.45
2004-05-30 06:00,32.26,217.5,10.71,-19.63,-25.60
2004-05-30 07:00,22.88,215.4,10.65,-13.24,-18.66
2004-05-30 08:00,18.77,215.7,10.56,-10.96,-15.24
2004-05-30 09:00,24.93,189.7,10.46,-4.20,-24.57
2004-05-30 10:00,30.50,185.1,10.40,-2.73,-30.38
2004-05-30 11:00,33.73,163.7,10.43,9.48,-32.37
2004-05-30 12:00,39.01,151.4,10.37,18.69,-34.24
2004-05-30 13:00,41.65,159.5,10.33,14.61,-39.00
2004-05-30 14:00,43.41,152.1,10.30,20.32,-38.36
2004-05-30 15:00,39.89,150.0,10.24,19.96,-34.53
2004-05-30 16:00,35.78,147.5,10.33,19.22,-30.18
2004-05-30 17:00,23.46,164.4,10.37,6.31,-22.60
2004-05-30 18:00,26.98,199.5,10.46,-9.03,-25.43
2004-05-30 19:00,27.86,211.2,10.62,-14.41,-23.85
2004-05-30 20:00,35.49,213.3,10.87,-19.46,-29.68
2004-05-30 21:00,,,,,
2004-05-30 23:00,18.77,216.8,11.16,-11.24,-15.04
2004-05-31 00:00,15.84,210.1,11.00,-7.94,-13.70
2004-05-31 01:00,13.49,173.2,10.90,1.60,-13.40
2004-05-31 02:00,16.42,168.3,10.97,3.34,-16.08
2004-05-31 03:00,19.06,164.0,10.93,5.24,-18.33
2004-05-31 04:00,12.03,111.6,10.84,11.18,-4.44
2004-05-31 05:00,13.79,95.1,10.81,13.73,-1.23
2004-05-31 06:00,8.21,120.4,10.65,7.08,-4.16
2004-05-31 07:00,5.57,170.0,10.65,0.97,-5.49
2004-05-31 08:00,12.32,257.2,10.62,-12.01,-2.73
2004-05-31 09:00,27.86,272.0,10.71,-27.85,0.96
2004-05-31 10:00,22.00,278.7,10.71,-21.75,3.31
2004-05-31 11:00,19.94,272.7,10.75,-19.92,0.93
2004-05-31 12:00,8.80,292.7,10.75,-8.12,3.40
2004-05-31 13:00,3.52,249.8,10.84,-3.30,-1.21
2004-05-31 14:00,2.64,167.6,10.93,0.57,-2.58
2004-05-31 15:00,7.04,113.4,11.03,6.46,-2.80
2004-05-31 16:00,10.56,100.4,11.16,10.39,-1.91
2004-05-31 17:00,11.44,73.3,11.28,10.96,3.28
2004-05-31 18:00,8.51,50.1,11.60,6.53,5.45
2004-05-31 19:00,9.09,17.8,11.78,2.77,8.66
2004-05-31 20:00,3.52,10.4,11.72,0.63,3.46
2004-05-31 21:00,3.52,326.1,11.60,-1.96,2.92
2004-05-31 22:00,2.05,82.5,11.50,2.04,0.27
2004-05-31 23:00,4.69,335.6,11.34,-1.94,4.27
2004-06-01 00:00,3.23,85.6,11.22,3.22,0.25
2004-06-01 01:00,14.96,113.8,11.16,13.69,-6.03
2004-06-01 02:00,17.60,101.8,11.06,17.23,-3.60
2004-06-01 03:00,17.01,82.8,11.00,16.88,2.13
2004-06-01 04:00,23.46,93.4,10.81,23.42,-1.38
2004-06-01 05:00,27.28,78.6,10.87,26.74,5.39
2004-06-01 06:00,27.86,68.8,10.87,25.97,10.10
2004-06-01 07:00,23.76,63.8,10.90,21.32,10.48
2004-06-01 08:00,14.66,92.3,10.93,14.65,-0.59
2004-06-01 09:00,7.33,101.8,11.00,7.18,-1.50
2004-06-01 10:00,4.40,82.8,10.97,4.36,0.55
2004-06-01 11:00,9.09,96.2,11.03,9.04,-0.98
2004-06-01 13:00,10.56,119.4,11.09,9.20,-5.18
2004-06-01 14:00,15.25,126.8,11.12,12.22,-9.13
2004-06-01 15:00,21.12,119.4,11.09,18.40,-10.36
2004-06-01 16:00,19.65,112.0,11.09,18.22,-7.36
2004-06-01 17:00,24.05,107.4,11.06,22.95,-7.20
2004-06-01 18:00,19.06,106.7,11.06,18.26,-5.49
2004-06-01 19:00,6.16,106.4,11.06,5.91,-1.74
2004-06-01 20:00,4.69,275.1,11.03,-4.67,0.42
2004-06-01 21:00,9.68,267.8,11.06,-9.67,-0.38
2004-06-01 22:00,12.32,296.2,11.03,-11.05,5.45
2004-06-01 23:00,8.51,305.0,11.00,-6.97,4.88
2004-06-02 00:00,3.23,36.4,11.03,1.91,2.60
2004-06-02 01:00,5.57,44.8,10.97,3.93,3.95
2004-06-02 02:00,17.60,82.5,11.00,17.45,2.31
2004-06-02 03:00,27.57,103.2,11.00,26.84,-6.30
2004-06-02 04:00,32.85,103.2,11.09,31.98,-7.51
2004-06-02 05:00,33.14,98.6,11.09,32.77,-4.98
2004-06-02 06:00,35.78,102.5,11.03,34.93,-7.75
2004-06-02 07:00,33.73,94.8,11.03,33.61,-2.81
2004-06-02 08:00,32.56,95.5,11.03,32.41,-3.11
2004-06-02 09:00,19.06,89.8,11.03,19.06,0.05
2004-06-02 10:00,8.21,77.5,11.03,8.02,1.77
2004-06-02 11:00,5.87,86.3,11.03,5.85,0.38
2004-06-02 12:00,6.45,72.6,11.03,6.16,1.93
2004-06-02 13:00,12.61,66.6,11.06,11.58,5.00
2004-06-02 14:00,12.91,86.7,11.09,12.88,0.75
2004-06-02 15:00,14.96,73.0,11.12,14.30,4.38
2004-06-02 16:00,31.68,87.0,11.22,31.63,1.64
2004-06-02 17:00,30.80,87.7,11.50,30.77,1.22
2004-06-02 18:00,37.25,97.2,11.63,36.95,-4.69
2004-06-02 19:00,32.56,84.6,11.69,32.41,3.08
2004-06-02 20:00,27.86,81.8,11.28,27.58,3.99
2004-06-02 21:00,17.60,99.3,11.31,17.36,-2.86
2004-06-02 22:00,,,,,
2004-06-02 23:00,7.33,107.4,11.38,7.00,-2.20
2004-06-03 00:00,2.93,18.8,11.19,0.95,2.78
2004-06-03 01:00,12.32,76.5,11.25,11.98,2.88
2004-06-03 02:00,16.42,89.8,11.16,16.42,0.04
2004-06-03 03:00,17.89,76.5,11.12,17.40,4.18
2004-06-03 04:00,27.28,96.9,11.12,27.08,-3.27
2004-06-03 05:00,34.90,112.0,11.50,32.36,-13.07
2004-06-03 06:00,32.26,113.1,11.47,29.69,-12.63
2004-06-03 07:00,29.04,127.1,11.41,23.15,-17.52
2004-06-03 08:00,29.62,128.5,11.41,23.18,-18.45
2004-06-03 09:00,21.12,156.7,11.47,8.37,-19.39
2004-06-03 10:00,17.89,202.7,11.44,-6.91,-16.50
2004-06-03 11:00,22.29,230.1,11.47,-17.11,-14.29
2004-06-03 12:00,19.36,268.1,11.41,-19.35,-0.64
2004-06-03 13:00,12.03,263.5,11.38,-11.95,-1.35
2004-06-03 14:00,12.03,319.8,11.34,-7.76,9.18
2004-06-03 15:00,8.80,26.2,11.38,3.89,7.89
2004-06-03 16:00,11.44,84.2,11.63,11.38,1.15
2004-06-03 17:00,19.94,84.2,11.75,19.84,2.01
2004-06-03 18:00,27.28,76.5,12.04,26.52,6.37
2004-06-03 19:00,30.80,83.9,11.91,30.62,3.29
2004-06-03 20:00,35.78,94.1,11.97,35.69,-2.54
2004-06-03 21:00,36.96,105.3,12.01,35.64,-9.76
2004-06-03 22:00,28.74,124.7,11.91,23.64,-16.35
2004-06-03 23:00,20.24,128.2,12.01,15.91,-12.51
2004-06-04 00:00,14.37,141.2,11.94,9.01,-11.20
2004-06-04 01:00,16.13,134.5,11.88,11.51,-11.31
2004-06-04 02:00,18.48,173.2,11.88,2.20,-18.35
2004-06-04 03:00,15.54,165.1,11.85,4.00,-15.02
2004-06-04 04:00,20.82,125.4,11.78,16.98,-12.05
2004-06-04 05:00,27.28,132.7,11.72,20.03,-18.51
2004-06-04 06:00,26.98,146.5,11.66,14.91,-22.49
2004-06-04 07:00,26.69,153.8,11.56,11.77,-23.96
2004-06-04 08:00,16.42,170.0,11.44,2.85,-16.18
2004-06-04 09:00,10.56,156.3,11.31,4.24,-9.67
2004-06-04 10:00,2.64,105.7,11.19,2.54,-0.71
2004-06-04 11:00,17.60,273.7,10.84,-17.56,1.15
2004-06-04 12:00,31.97,266.4,11.06,-31.90,-2.03
2004-06-04 13:00,23.17,283.2,11.19,-22.56,5.30
2004-06-04 14:00,25.81,276.2,11.44,-25.66,2.79
2004-06-04 15:00,14.96,293.4,11.34,-13.73,5.95
2004-06-04 16:00,17.30,256.9,11.88,-16.85,-3.93
2004-06-04 17:00,10.27,256.9,12.45,-10.00,-2.33
2004-06-04 18:00,6.45,257.9,12.79,-6.31,-1.35
2004-06-04 19:00,10.27,11.8,13.20,2.10,10.05
2004-06-04 20:00,14.96,9.3,12.89,2.43,14.76
2004-06-04 21:00,15.84,34.6,13.26,9.00,13.03
2004-06-04 22:00,19.36,51.2,12.73,15.08,12.14
2004-06-04 23:00,9.68,78.9,12.73,9.50,1.86
2004-06-05 00:00,5.87,123.3,12.63,4.91,-3.22